Погода в Усть-Куломе

Россия / Республика Коми     61°41′08″N   53°41′23″E
темп.,
°C
ветер,
м/с
пор.,
м/с
влажн.,
%
обл.,
%
осадки,
мм/ч
давл.,
гПа
погр.,
м
22 апреля, чт
чт2200:00+6ююв41364100 0.0 1022601
03:00+5ююв51365100 0.0 1021704
06:00+6ю51362100 0.0 10201215
09:00+4ююв51296100 1.5 1020915
12:00+3ю51296100 1.4 1020874
15:00+3ю41196100 1.6 1021702
18:00+4ю41193100 0.0 1021819
21:00+4ю41190100 0.0 1021634
23 апреля, пт
пт2300:00+4ю41192100 0.0 1021698
03:00+4ю41091100 0.1 1021715
06:00+4ю399497 0.4 1022632
09:00+9юз4764100 0.4 10221401
12:00+9юз366351 0.1 10231392
15:00+10ююз2561100 0.1 1023827
18:00+9ююв386795 0.0 1024320
21:00+6ю398344 0.0 1025266
24 апреля, сб
сб2400:00+3юв229459 0.0 102619
03:00+2юв239437 0.0 102659
06:00+5юв36825 0.0 1025199
09:00+10юв4658100 0.0 10241504
12:00+12юв364783 0.0 10231908
15:00+11вюв484786 0.0 10211848
18:00+10в3855100 0.0 1019477
21:00+6вюв2875100 0.0 1019223
25 апреля, вс
вс2500:00+5вюв31083100 0.0 1017361
03:00+5вюв41284100 0.0 1016598
06:00+6вюв51180100 0.0 10141289
09:00+5вюв51094100 0.3 10121025
12:00+6вюв51082100 0.6 10111019
15:00+6вюв51288100 1.2 10091236
18:00+5вюв41094100 0.8 10081139
21:00+5вюв4897100 1.4 1006999
26 апреля, пн
пн2600:00+4вюв3897100 1.2 1005962
03:00+2ююз41097100 2.9 1005548
06:00+2ю41196100 0.4 1005743
09:00+4ююз51079100 0.7 10061132
12:00+5юз51171100 0.7 10071418
15:00+6юз51170100 1.3 10071485
18:00+5ююз41068100 0.3 10071177
21:00+3ююз41179100 0.3 1007917